Regional Weather Roundup
Issued by NWS Newport/Morehead, NC

Home | Current Version | Previous Version | Text Only | Print | Product List | Glossary On
Versions: 1 2 3 4 5 6 7 8 9 10 11 12 13 14 15 16 17 18 19 20 21 22 23 24 25 26 27 28 29 30 31 32 33 34 35 36 37 38 39 40 41 42 43 44 45 46 47 48 49 50
000
ASUS42 KMHX 292025
RWRMHX
WEATHER ROUNDUP FOR EASTERN NORTH CAROLINA
NATIONAL WEATHER SERVICE NEWPORT/MOREHEAD CITY NC
400 PM EDT THU SEP 29 2016

NOTE: "FAIR" INDICATES FEW OR NO CLOUDS BELOW 12,000 FEET
WITH NO SIGNIFICANT WEATHER AND/OR OBSTRUCTIONS TO VISIBILITY

NCZ015>017-031-032-045>047-102-103-292100-
NORTH COAST

CITY           SKY/WX    TMP DP  RH WIND       PRES   REMARKS
EDENTON        CLOUDY    78  78 100 CALM      30.01S
ELIZABETH CITY LGT RAIN  74  71  91 NE12      30.02F
KITTY HAWK     CLOUDY    76  74  93 N3        30.01F
MANTEO         CLOUDY    76  72  87 NE7       30.03S

$$

NCZ045>047-081-094-103-104-292100-
CENTRAL COAST

CITY           SKY/WX    TMP DP  RH WIND       PRES   REMARKS
FRISCO         CLOUDY    81  74  79 VRB3      30.02S

$$

NCZ095-097-098-100-101-292100-
SOUTHERN COAST

CITY           SKY/WX    TMP DP  RH WIND       PRES   REMARKS
BEAUFORT       CLOUDY    76  72  87 E8        30.00F
CEDAR ISLAND   NOT AVBL
JACKSONVILLE   CLOUDY    82  71  69 E5        29.99R
PINEY ISLAND   CLOUDY   N/A N/A N/A E6        30.00F
WILMINGTON     CLOUDY    81  71  71 SE8       29.99R


$$

NCZ011>013-027>030-043-044-078>080-089-090>093-098-292100-
COASTAL PLAIN

CITY           SKY/WX    TMP DP  RH WIND       PRES   REMARKS
AHOSKIE        CLOUDY    73  69  86 CALM      30.02S
CLINTON        LGT RAIN  73  73  97 CALM      29.98S
ELIZABETHTOWN  LGT RAIN  69  68  98 E3        29.96F
GOLDSBORO      MOSUNNY   78  74  88 E10       29.97S
GREENVILLE     CLOUDY    81  72  74 SE8       30.01F
HAVELOCK       PTSUNNY   78  71  79 NE8       30.00F
KENANSVILLE    CLOUDY    75  72  88 SE3       30.00R
KINSTON        CLOUDY    79  70  73 E7        30.01S
NEW BERN       CLOUDY    78  71  79 E8        30.01S
RICHLANDS      CLOUDY    80  73  79 E8        30.00R
ROCKY MOUNT    CLOUDY    77  73  87 E5        29.99F
WASHINGTON     CLOUDY    76  70  82 E8        30.01S
WHITEVILLE     CLOUDY    70  67  89 CALM      29.98S

$$

AMZ130-135-150-152-154-156-158-170-250-252-270-ANZ085-086-088-633-658-670-292100-
MARINE OBSERVATIONS

STATION/POSITION TIME  TEMP    WIND        PRES    WAVE   SWELL
                       AIR SEA DIR/SP/G            HT/PER HT/PER
                 (UTC) (F)     (DEG/KT/KT) (MB)    (FT/S) (FT/S)
CHESAPEAKE LIGHT NOT AVBL
64 E VA BEACH    1950   76 75   50/  8/ 12 1016.5    6/ 8   5/ 8
DUCK             2000   75 77   10/ 10/ 12 1016.3
2 E DUCK         1941      77                N/A     4/ 8   2/11
OREGON INLET     2000   77 78   10/  6/  9 1016.4
13E OREGON INLT  1930      78                N/A     5/ 8   5/ 8
HATTERAS CG      2000   78 79  360/  5/  6 1016.2
DIAMOND BUOY     1950   80 80  310/  4/  6 1016.4    4/10   3/10
CAPE LOOKOUT     2000   75      50/ 10/ 11 1015.8
BEAUFORT LAB     2000   75 77   80/  5/  7 1015.3
30 SE NEW RVR IN 2008   79 83   70/ 12/ 17 1015.7
30 SE NEW RVR IN 1925      83                N/A     3/ 4   2/11
27 SE WRIGHTSVLE 2008   81 81  200/  4/  8 1015.9
5 SE WRIGHTSVLE  1908   79 81   70/  8/ 12 1016.3
225 S CAPE HAT   1950   81 83  220/ 10/ 12 1016.9    3/ 5   3/ 5
41 SE CHARLESTON 1950   81 82  200/ 16/ 17 1013.3    4/ 5   2/11

$$




USA.gov is the U.S. government's official web portal to all federal, state and local government web resources and services.